Torna al catalogo

STARLINK-34409

AttivoComunicazioniVLEO
NORAD 64485·PAYLOAD·🇺🇸 United States

Lanciato Jun 23, 2025 da Cape Canaveral Space Force Station

Loading…

Prossimi Passaggi (prossime 24 ore)

TLE

AggiornatoSource: CelesTrak SupGP

Epoca: Sep 15, 2026, 02:58 UTC

1 64485C 25133P   26258.12409722  .00046075  00000+0  13602-2 0  2584
2 64485  53.1582 314.4984 0001252  93.0578 331.5935 15.34393342    15

Traccia STARLINK-34409 in tempo reale con AllMySat

Download on the App Store